Big Rapids, MI

5:42 AM EDT on May 23, 2018 (GMT -0400)
Roben-Hood

Weather History for KRQB - January, 2013

Change the Weather History Date:

Wednesday, January 9, 2013

  Actual Average Record
Temperature  
Mean Temperature 36 °F -  
Max Temperature 43 °F 25 °F 48 °F (2002)
Min Temperature 30 °F 10 °F -13 °F (1977)
Degree Days  
Heating Degree Days 28    
Moisture  
Dew Point 26 °F    
Average Humidity 64    
Maximum Humidity 83    
Minimum Humidity 46    
Precipitation  
Precipitation 0.00 in - - ()
Sea Level Pressure  
Sea Level Pressure 30.08 in    
Wind  
Wind Speed 12 mph (WSW)    
Max Wind Speed 24 mph    
Max Gust Speed 34 mph    
Visibility 10 miles    
Events Snow    
Averages and records for this station are not official NWS values.
T = Trace of Precipitation, MM = Missing Value Source: NWS Daily Summary

Daily Weather History Graph

Daily Weather History Graph

Search for Another Location

Airport or City:

Astronomy

Jan. 09, 2013 Rise Set
Actual Time 8:14 AM EST 5:23 PM EST
Civil Twilight 7:42 AM EST 5:56 PM EST
Nautical Twilight 7:06 AM EST 6:32 PM EST
Astronomical Twilight 6:32 AM EST 7:06 PM EST
Moon 5:53 AM EST (1/9) 3:24 PM EST (1/9)
Length of Visible Light 10h 13m
Length of Day
9h 09m
Waning Crescent, 6% of the Moon is Illuminated
Jan 9
Waning Crescent
Jan 11
New
Jan 18
First Quarter
Jan 26
Full
Feb 3
Last Quarter

Hourly Weather History & Observations

Time (EST) Temp. Windchill Dew Point Humidity Pressure Visibility Wind Dir Wind Speed Gust Speed Precip Events Conditions
12:54 AM 34.0 °F 26.6 °F 23.2 °F 65% 29.99 in 10.0 mi South 9.2 mph - N/A   Scattered Clouds
1:14 AM 33.8 °F 27.0 °F 23.0 °F 65% 29.97 in 10.0 mi South 8.1 mph - N/A   Clear
1:35 AM 33.6 °F 26.8 °F 23.4 °F 66% 29.96 in 10.0 mi South 8.1 mph - N/A   Clear
1:54 AM 33.8 °F 27.7 °F 23.5 °F 66% 29.94 in 10.0 mi South 6.9 mph - N/A   Clear
2:14 AM 34.3 °F 28.4 °F 23.9 °F 66% 29.94 in 10.0 mi SSW 6.9 mph - N/A   Clear
2:35 AM 34.7 °F 28.1 °F 24.6 °F 67% 29.94 in 10.0 mi SSW 8.1 mph - N/A   Clear
2:54 AM 35.1 °F 27.9 °F 25.3 °F 68% 29.93 in 10.0 mi South 9.2 mph - N/A   Scattered Clouds
3:14 AM 35.6 °F 28.6 °F 26.2 °F 69% 29.93 in 10.0 mi SSW 9.2 mph - N/A   Overcast
3:35 AM 36.0 °F 28.5 °F 27.3 °F 71% 29.93 in 10.0 mi SSW 10.4 mph - N/A   Overcast
3:55 AM 36.5 °F 29.2 °F 28.2 °F 72% 29.91 in 10.0 mi South 10.4 mph - N/A   Overcast
4:14 AM 35.6 °F 28.6 °F 30.0 °F 80% 29.90 in 7.0 mi South 9.2 mph - N/A Snow Light Snow
4:34 AM 36.1 °F 29.9 °F 30.7 °F 81% 29.90 in 10.0 mi SSW 8.1 mph - N/A   Scattered Clouds
4:55 AM 36.1 °F 29.3 °F 31.1 °F 82% 29.89 in 10.0 mi SSW 9.2 mph - N/A   Clear
5:14 AM 36.1 °F 29.9 °F 31.5 °F 83% 29.89 in 7.0 mi SSW 8.1 mph - N/A   Scattered Clouds
5:34 AM 37.0 °F 31.0 °F 32.0 °F 82% 29.88 in 7.0 mi SSW 8.1 mph - N/A   Mostly Cloudy
5:55 AM 37.6 °F 31.0 °F 32.4 °F 81% 29.88 in 7.0 mi WSW 9.2 mph 17.3 mph N/A   Scattered Clouds
6:14 AM 37.9 °F 30.5 °F 32.5 °F 81% 29.88 in 10.0 mi SW 11.5 mph - N/A   Scattered Clouds
6:34 AM 38.7 °F 31.8 °F 32.0 °F 77% 29.88 in 10.0 mi WSW 10.4 mph 18.4 mph N/A   Scattered Clouds
6:54 AM 39.2 °F 32.5 °F 32.0 °F 75% 29.89 in 10.0 mi WSW 10.4 mph 18.4 mph N/A   Scattered Clouds
7:14 AM 39.4 °F 32.3 °F 32.0 °F 75% 29.90 in 10.0 mi WSW 11.5 mph 18.4 mph N/A   Mostly Cloudy
7:34 AM 39.7 °F 31.9 °F 31.6 °F 73% 29.91 in 10.0 mi West 13.8 mph 20.7 mph N/A   Overcast
7:54 AM 39.7 °F 30.6 °F 31.1 °F 71% 29.93 in 10.0 mi West 18.4 mph 26.5 mph N/A   Overcast
8:14 AM 39.2 °F 30.2 °F 30.2 °F 70% 29.94 in 10.0 mi West 17.3 mph 25.3 mph N/A   Overcast
8:34 AM 38.5 °F 29.2 °F 29.5 °F 70% 29.97 in 10.0 mi West 17.3 mph 25.3 mph N/A   Mostly Cloudy
8:54 AM 37.9 °F 29.2 °F 29.1 °F 71% 29.98 in 10.0 mi West 15.0 mph 24.2 mph N/A   Mostly Cloudy
9:14 AM 37.4 °F 29.8 °F 29.1 °F 72% 29.99 in 10.0 mi West 11.5 mph 19.6 mph N/A   Scattered Clouds
9:35 AM 37.8 °F 30.2 °F 29.1 °F 71% 29.99 in 10.0 mi West 11.5 mph 20.7 mph N/A   Scattered Clouds
9:54 AM 38.3 °F 30.5 °F 29.3 °F 70% 30.00 in 10.0 mi West 12.7 mph 20.7 mph N/A   Scattered Clouds
10:14 AM 38.5 °F 30.3 °F 29.3 °F 70% 30.00 in 10.0 mi West 13.8 mph 21.9 mph N/A   Scattered Clouds
10:34 AM 39.2 °F 32.0 °F 29.3 °F 68% 30.00 in 10.0 mi WSW 11.5 mph 20.7 mph N/A   Scattered Clouds
10:54 AM 39.6 °F 32.1 °F 29.3 °F 67% 30.01 in 10.0 mi WSW 12.7 mph 18.4 mph N/A   Scattered Clouds
11:14 AM 40.5 °F 32.5 °F 28.8 °F 63% 30.01 in 10.0 mi West 15.0 mph 23.0 mph N/A   Clear
11:34 AM 41.5 °F 33.5 °F 28.2 °F 59% 30.00 in 10.0 mi West 16.1 mph 25.3 mph N/A   Clear
11:54 AM 42.6 °F 35.9 °F 27.3 °F 55% 30.00 in 10.0 mi West 12.7 mph 26.5 mph N/A   Clear
12:15 PM 43.3 °F 35.5 °F 25.3 °F 49% 30.01 in 10.0 mi WSW 17.3 mph 28.8 mph N/A   Scattered Clouds
12:34 PM 43.0 °F 33.5 °F 23.4 °F 46% 30.01 in 10.0 mi West 24.2 mph 33.4 mph N/A   Scattered Clouds
12:54 PM 43.0 °F 33.8 °F 24.1 °F 47% 30.02 in 10.0 mi West 23.0 mph 34.5 mph N/A   Clear
1:14 PM 42.8 °F 34.3 °F 23.5 °F 47% 30.02 in 10.0 mi West 19.6 mph 27.6 mph N/A   Clear
1:34 PM 42.6 °F 34.6 °F 24.6 °F 49% 30.02 in 10.0 mi West 17.3 mph 27.6 mph N/A   Clear
1:54 PM 42.3 °F 33.8 °F 24.1 °F 49% 30.03 in 10.0 mi West 18.4 mph 25.3 mph N/A   Clear
2:14 PM 41.9 °F 33.7 °F 23.2 °F 47% 30.04 in 10.0 mi West 17.3 mph 28.8 mph N/A   Clear
2:34 PM 41.9 °F 32.8 °F 22.3 °F 46% 30.06 in 10.0 mi West 20.7 mph 31.1 mph N/A   Scattered Clouds
2:54 PM 40.3 °F 30.2 °F 23.9 °F 52% 30.09 in 10.0 mi West 23.0 mph 31.1 mph N/A   Scattered Clouds
3:14 PM 41.0 °F 32.2 °F 23.9 °F 51% 30.11 in 10.0 mi West 18.4 mph 31.1 mph N/A   Scattered Clouds
3:34 PM 41.0 °F 32.2 °F 23.9 °F 51% 30.11 in 10.0 mi West 18.4 mph 29.9 mph N/A   Mostly Cloudy
3:54 PM 40.3 °F 31.6 °F 23.9 °F 52% 30.14 in 10.0 mi West 17.3 mph 29.9 mph N/A   Mostly Cloudy
4:15 PM 40.1 °F 31.0 °F 23.7 °F 52% 30.17 in 10.0 mi West 18.4 mph 31.1 mph N/A   Overcast
4:34 PM 39.9 °F 31.8 °F 23.9 °F 53% 30.18 in 10.0 mi West 15.0 mph 32.2 mph N/A   Mostly Cloudy
4:55 PM 39.4 °F 29.8 °F 23.9 °F 54% 30.19 in 10.0 mi West 19.6 mph 31.1 mph N/A   Scattered Clouds
5:14 PM 38.5 °F 29.6 °F 24.1 °F 56% 30.21 in 10.0 mi West 16.1 mph 24.2 mph N/A   Clear
5:34 PM 38.3 °F 30.5 °F 23.9 °F 56% 30.23 in 10.0 mi West 12.7 mph 23.0 mph N/A   Clear
5:55 PM 38.1 °F 29.5 °F 23.9 °F 57% 30.24 in 10.0 mi West 15.0 mph 23.0 mph N/A   Clear
6:14 PM 37.8 °F 29.0 °F 24.3 °F 58% 30.25 in 10.0 mi West 15.0 mph 26.5 mph N/A   Clear
6:34 PM 37.6 °F 28.1 °F 24.3 °F 59% 30.27 in 10.0 mi West 17.3 mph 21.9 mph N/A   Clear
6:54 PM 37.4 °F 28.5 °F 24.4 °F 60% 30.29 in 10.0 mi WNW 15.0 mph 27.6 mph N/A   Clear
7:14 PM 36.9 °F 28.7 °F 24.6 °F 61% 30.30 in 10.0 mi WNW 12.7 mph 24.2 mph N/A   Clear
7:34 PM 36.7 °F 26.9 °F 24.6 °F 62% 30.30 in 10.0 mi WNW 17.3 mph 23.0 mph N/A   Clear
7:54 PM 37.0 °F 27.4 °F 24.3 °F 60% 30.31 in 10.0 mi WNW 17.3 mph 25.3 mph N/A   Clear
8:14 PM 36.5 °F 27.0 °F 24.3 °F 61% 30.32 in 10.0 mi NW 16.1 mph 19.6 mph N/A   Clear
9:14 PM 34.9 °F 28.3 °F 24.4 °F 66% 30.34 in 10.0 mi NW 8.1 mph - N/A   Clear
9:34 PM 34.0 °F 26.0 °F 24.4 °F 68% 30.35 in 10.0 mi NW 10.4 mph - N/A   Clear
9:55 PM 34.0 °F 26.6 °F 24.3 °F 68% 30.36 in 10.0 mi West 9.2 mph - N/A   Clear
10:14 PM 32.4 °F 27.9 °F 23.7 °F 70% 30.37 in 10.0 mi West 4.6 mph - N/A   Clear
10:34 PM 32.4 °F 26.9 °F 23.4 °F 69% 30.37 in 10.0 mi WNW 5.8 mph - N/A   Clear
10:55 PM 31.3 °F 27.9 °F 23.2 °F 72% 30.37 in 10.0 mi NW 3.5 mph - N/A   Clear
11:14 PM 32.0 °F 26.4 °F 23.4 °F 70% 30.37 in 10.0 mi WNW 5.8 mph - N/A   Clear
11:34 PM 30.2 °F 24.3 °F 22.6 °F 73% 30.38 in 10.0 mi West 5.8 mph - N/A   Clear
11:55 PM 30.7 °F 27.3 °F 22.1 °F 70% 30.37 in 10.0 mi WNW 3.5 mph - N/A   Clear